#timestamp,LO_Frequency,Hit 
1505455215.7,286047000.4,N
1505455235.6,286047003.4,N
1505455255.4,286047003.8,N
1505455275.2,286047001.5,N
1505455295.1,286047003.3,N
1505455296.0,286047003.3,N
1505455315.8,286047006.4,N
1505455335.6,286047006.8,N
1505455355.5,286047006.6,N
1505455375.3,286047010.6,P
1505455395.1,286047001.1,N
1505455415.9,286046998.9,N
1505455435.7,286046996.1,N
1505455455.5,286046997.8,N
1505455475.4,286046993.8,N
1505455495.2,286046990.3,N
1505455515.0,286046992.3,N
1505455515.9,286046992.3,N
1505455535.7,286046991.6,N
1505455555.6,286046986.7,N
1505455575.4,286046981.2,N
1505455595.2,286046983.1,N
1505455615.1,286046983.6,N
1505455616.0,286046983.6,N
1505455635.8,286046982.5,N
1505455655.6,286046986.4,N
1505455675.5,286046985.1,N
1505455695.3,286046985.9,N
1505455715.1,286046982.6,N
1505455735.9,286046983.4,N
1505455755.7,286046982.0,N
1505455775.5,286046977.3,N
1505455795.4,286046977.6,N
1505455815.2,286046983.2,N
1505455835.0,286046982.5,N
1505455835.9,286046982.5,N
1505455855.8,286046982.3,N
1505455875.6,286046984.4,N
1505455895.4,286046983.8,N
1505455915.3,286046986.7,N
1505455935.1,286046984.8,N
1505455936.0,286046984.8,N
1505455955.0,286046984.1,P
1505455955.9,286046984.1,P
1505455975.8,286046995.8,P
1505455995.6,286046995.8,N
1505456015.4,286046995.1,N
1505456035.3,286046987.2,N
1505456055.1,286046986.0,N
1505456056.0,286046986.0,N
1505456075.8,286046995.7,N
1505456095.7,286047002.6,N
1505456115.5,286047005.8,N
1505456135.3,286047008.5,N
1505456155.2,286047010.5,N
1505456175.9,286047012.6,N
1505456195.7,286047015.9,N
1505456215.6,286047019.7,N
1505456235.4,286047022.9,N
1505456255.2,286047026.8,N
1505456275.0,286047032.3,N
1505456275.9,286047032.3,N
1505456295.8,286047031.5,N
1505456315.6,286047030.1,N
1505456335.4,286047031.9,N
1505456355.3,286047029.7,N
1505456375.1,286047029.8,N
1505456376.0,286047029.8,N
1505456395.8,286047029.1,N
1505456415.7,286047030.3,N
1505456435.5,286047037.8,N
1505456455.3,286047032.4,N
1505456475.2,286047031.3,N
1505456495.9,286047028.5,N
1505456515.7,286047031.8,N
1505456535.6,286047033.7,N
1505456555.4,286047034.3,N
1505456575.2,286047032.5,N
1505456595.1,286047030.6,N
1505456596.0,286047030.6,N
1505456615.8,286047030.9,N
1505456635.6,286047033.0,P
1505456655.5,286047000.5,N
1505456675.3,286047001.4,N
1505456695.1,286047001.4,N
1505456715.9,286047001.4,N
1505456735.7,286047000.3,N
1505456755.5,286047002.2,N
1505456775.3,286047001.1,N
1505456795.2,286047001.6,N
1505456815.0,286047003.9,N
1505456815.9,286047003.9,N
1505456835.7,286047004.9,N
1505456855.6,286047004.1,N
1505456875.4,286047003.4,N
1505456895.2,286047004.3,N
1505456915.1,286047003.1,N
1505456916.0,286047003.1,N
1505456935.8,286047004.1,N
1505456955.6,286047003.0,N
1505456975.5,286047006.8,N
1505456995.3,286047005.6,N
1505457015.1,286047006.0,N
1505457035.9,286047006.8,N
1505457055.7,286047007.6,N
1505457075.5,286047007.4,N
1505457095.4,286047007.2,N
1505457115.2,286047003.1,N
1505457135.0,286047006.4,N
1505457135.9,286047006.4,N
1505457155.8,286047006.6,N
1505457175.6,286047006.3,N
1505457195.4,286047012.4,P
1505457215.3,286047004.6,N
1505457235.1,286047004.2,N
1505457236.0,286047004.2,N
1505457255.8,286047002.1,N
1505457275.7,286047003.4,N
1505457295.5,286047004.2,N
1505457315.3,286047002.4,N
1505457335.1,286046996.6,N
1505457355.9,286046994.9,N
1505457375.7,286046997.9,N
1505457395.5,286046995.0,N
1505457415.4,286046994.9,N
1505457435.2,286046997.1,N
1505457455.0,286046994.3,N
1505457455.9,286046994.3,N
1505457475.8,286046989.0,N
1505457495.6,286046996.1,N
1505457515.4,286046997.7,N
1505457535.3,286046995.0,N
1505457555.1,286046997.6,N
1505457556.0,286046997.6,N
1505457575.8,286046995.4,N
1505457595.7,286046995.0,N
1505457615.5,286046995.2,N
1505457635.3,286046994.7,N
1505457655.2,286046996.0,N
1505457675.9,286046993.7,N
1505457695.7,286046995.1,N
1505457715.5,286046995.2,N
1505457735.4,286046993.4,N
1505457755.2,286046995.2,N
1505457775.0,286046996.6,N
1505457775.9,286046996.6,N
1505457795.8,286046994.7,N
1505457815.6,286046990.8,P
1505457835.4,286046994.5,N
1505457855.3,286046990.1,P
1505457875.1,286046991.8,P
1505457895.9,286046998.7,N
1505457915.7,286046997.9,N
1505457935.5,286046999.2,N
1505457955.3,286046999.3,N
1505457975.2,286047000.9,N
1505457995.0,286046998.6,N
1505457995.9,286046998.6,N
1505458015.7,286047001.0,N
1505458035.6,286047004.3,N
1505458055.4,286047003.4,N
1505458075.2,286047007.0,N
1505458095.1,286047009.1,N
1505458096.0,286047009.1,N
1505458115.8,286047008.5,N
1505458135.6,286047005.8,N
1505458155.5,286047005.6,N
1505458175.3,286047009.1,N
1505458195.1,286047006.2,N
1505458215.9,286047007.1,N
1505458235.7,286047007.6,N
1505458255.5,286047008.4,N
1505458275.3,286047009.1,N
1505458295.2,286047009.2,N
1505458315.0,286047010.4,N
1505458315.9,286047010.4,N
1505458335.7,286047008.4,N
1505458355.6,286047008.7,N
1505458375.4,286047005.5,N
1505458395.2,286047009.0,N
1505458415.1,286047004.8,N
1505458416.0,286047004.8,N
1505458435.8,286047007.2,N
1505458455.6,286047008.5,N
1505458475.5,286047009.7,N
1505458495.3,286047006.7,N
1505458515.1,286047007.5,N
1505458535.9,286047003.8,N
1505458555.7,286047003.9,N
1505458575.5,286047002.4,N
1505458595.4,286047001.8,N
1505458615.2,286047004.4,N
1505458635.0,286047004.2,N
1505458635.9,286047004.2,N
1505458655.8,286047007.5,P
1505458675.6,286046999.4,N
1505458695.4,286046999.9,N
1505458715.3,286047002.3,N
1505458735.1,286047000.1,N
1505458736.0,286047000.1,N
1505458755.8,286047000.0,N
1505458775.7,286046998.1,N
1505458795.5,286047001.2,N
